When you browse on this site, cookies collect data to enhance your experience and personalize the content and advertising you see.
Visit our Privacy Policy to learn more. By continuing to use the site, you agree to this use of cookies and data.
  • In Schweiz
  • Länderverzeichnis
  • Für 7 Tage
  • Wassertemperatur
  • Satellitenkarten
  • Wetterkarte
  • Widgets
  • user-avatar
    Anmelden

    Stündliche Wetter Karabalta

    Heute, 25 März, Montag

    Zeit Temperatur Niederschläge Wind Luftdruck Luftfeuchtigkeit
    00:00 +8°C° 0 mm 2 m/S 697 mmHg 58%
    01:00 +7°C° 0 mm 2 m/S 697 mmHg 55%
    02:00 +7°C° 0 mm 3 m/S 697 mmHg 53%
    03:00 +7°C° 0 mm 3 m/S 697 mmHg 51%
    04:00 +7°C° 0 mm 3 m/S 698 mmHg 49%
    05:00 +7°C° 0 mm 3 m/S 697 mmHg 47%
    06:00 +8°C° 0 mm 2 m/S 697 mmHg 46%
    07:00 +9°C° 0 mm 2 m/S 698 mmHg 44%
    08:00 +10°C° 0 mm 2 m/S 698 mmHg 43%
    09:00 +13°C° 0 mm 2 m/S 698 mmHg 39%
    10:00 +14°C° 0 mm 2 m/S 698 mmHg 35%
    11:00 +16°C° 0 mm 2 m/S 698 mmHg 32%
    12:00 +16°C° 0 mm 2 m/S 698 mmHg 31%
    13:00 +17°C° 0 mm 2 m/S 698 mmHg 30%
    14:00 +18°C° 0 mm 2 m/S 698 mmHg 29%
    15:00 +18°C° 0 mm 1 m/S 698 mmHg 30%
    16:00 +18°C° 0 mm 1 m/S 698 mmHg 32%
    17:00 +16°C° 0 mm 0 m/S 698 mmHg 33%
    18:00 +16°C° 0 mm 1 m/S 698 mmHg 36%
    19:00 +14°C° 0 mm 2 m/S 698 mmHg 39%
    20:00 +13°C° 0 mm 2 m/S 698 mmHg 42%
    21:00 +11°C° 0 mm 3 m/S 698 mmHg 42%
    22:00 +11°C° 0 mm 3 m/S 698 mmHg 42%
    23:00 +10°C° 0 mm 4 m/S 698 mmHg 42%

    Morgen, 26 März, Dienstag

    Zeit Temperatur Niederschläge Wind Luftdruck Luftfeuchtigkeit
    00:00 +10°C° 0 mm 4 m/S 698 mmHg 41%
    01:00 +10°C° 0 mm 4 m/S 698 mmHg 40%
    02:00 +9°C° 0 mm 5 m/S 698 mmHg 38%
    03:00 +8°C° 0 mm 5 m/S 698 mmHg 37%
    04:00 +8°C° 0 mm 5 m/S 698 mmHg 36%
    05:00 +8°C° 0 mm 5 m/S 698 mmHg 35%
    06:00 +9°C° 0 mm 5 m/S 698 mmHg 35%
    07:00 +12°C° 0 mm 4 m/S 698 mmHg 35%
    08:00 +13°C° 0 mm 4 m/S 698 mmHg 34%
    09:00 +15°C° 0 mm 4 m/S 698 mmHg 30%
    10:00 +18°C° 0 mm 4 m/S 698 mmHg 26%
    11:00 +21°C° 0 mm 3 m/S 698 mmHg 21%
    12:00 +21°C° 0 mm 3 m/S 697 mmHg 21%
    13:00 +22°C° 0 mm 3 m/S 697 mmHg 20%
    14:00 +24°C° 0 mm 3 m/S 696 mmHg 19%
    15:00 +22°C° 0 mm 3 m/S 696 mmHg 23%
    16:00 +21°C° 0 mm 3 m/S 695 mmHg 26%
    17:00 +21°C° 0 mm 3 m/S 695 mmHg 30%
    18:00 +19°C° 0 mm 3 m/S 695 mmHg 30%
    19:00 +18°C° 0 mm 3 m/S 695 mmHg 31%
    20:00 +17°C° 0 mm 4 m/S 695 mmHg 31%
    21:00 +17°C° 0 mm 3 m/S 694 mmHg 31%
    22:00 +17°C° 0 mm 3 m/S 694 mmHg 32%
    23:00 +16°C° 0 mm 3 m/S 694 mmHg 32%

    übermorgen, 27 März, Mittwoch

    Zeit Temperatur Niederschläge Wind Luftdruck Luftfeuchtigkeit
    00:00 +16°C° 0 mm 3 m/S 694 mmHg 35%
    01:00 +14°C° 0 mm 4 m/S 694 mmHg 38%
    02:00 +14°C° 0 mm 4 m/S 694 mmHg 41%
    03:00 +14°C° 0 mm 3 m/S 694 mmHg 45%
    04:00 +13°C° 0 mm 3 m/S 694 mmHg 49%
    05:00 +14°C° 0 mm 2 m/S 695 mmHg 53%
    06:00 +14°C° 0 mm 2 m/S 695 mmHg 52%
    07:00 +15°C° 0 mm 2 m/S 696 mmHg 51%
    08:00 +15°C° 0 mm 2 m/S 696 mmHg 50%
    09:00 +16°C° 0 mm 2 m/S 696 mmHg 50%
    10:00 +17°C° 0 mm 3 m/S 696 mmHg 50%
    11:00 +18°C° 0 mm 3 m/S 696 mmHg 51%
    12:00 +18°C° 0 mm 3 m/S 695 mmHg 49%
    13:00 +19°C° 0 mm 3 m/S 695 mmHg 47%
    14:00 +19°C° 0 mm 3 m/S 694 mmHg 46%
    15:00 +19°C° 0.1 mm 3 m/S 694 mmHg 48%
    16:00 +19°C° 0.1 mm 3 m/S 694 mmHg 50%
    17:00 +18°C° 0.1 mm 2 m/S 695 mmHg 52%
    18:00 +17°C° 0.1 mm 2 m/S 695 mmHg 55%
    19:00 +18°C° 0.1 mm 1 m/S 695 mmHg 58%
    20:00 +16°C° 0.1 mm 1 m/S 695 mmHg 61%
    21:00 +16°C° 0 mm 1 m/S 695 mmHg 60%
    22:00 +16°C° 0 mm 2 m/S 695 mmHg 59%
    23:00 +16°C° 0 mm 2 m/S 695 mmHg 57%

    28 März, Donnerstag

    Zeit Temperatur Niederschläge Wind Luftdruck Luftfeuchtigkeit
    00:00 +15°C° 0.1 mm 2 m/S 694 mmHg 56%
    01:00 +15°C° 0.1 mm 2 m/S 694 mmHg 56%
    02:00 +15°C° 0.1 mm 2 m/S 694 mmHg 55%
    03:00 +15°C° 0.1 mm 2 m/S 694 mmHg 54%
    04:00 +15°C° 0.1 mm 2 m/S 694 mmHg 54%
    05:00 +15°C° 0.1 mm 1 m/S 694 mmHg 53%
    06:00 +16°C° 0.2 mm 1 m/S 694 mmHg 54%
    07:00 +16°C° 0.2 mm 1 m/S 695 mmHg 55%
    08:00 +18°C° 0.2 mm 1 m/S 695 mmHg 56%
    09:00 +18°C° 0.2 mm 2 m/S 695 mmHg 55%
    10:00 +18°C° 0.2 mm 2 m/S 696 mmHg 53%
    11:00 +19°C° 0.2 mm 2 m/S 696 mmHg 52%
    12:00 +19°C° 0.2 mm 2 m/S 696 mmHg 54%
    13:00 +19°C° 0.2 mm 2 m/S 696 mmHg 55%
    14:00 +19°C° 0.2 mm 2 m/S 696 mmHg 56%
    15:00 +19°C° 0.2 mm 2 m/S 696 mmHg 60%
    16:00 +19°C° 0.2 mm 1 m/S 696 mmHg 64%
    17:00 +19°C° 0.2 mm 1 m/S 695 mmHg 68%
    18:00 +17°C° 0.1 mm 2 m/S 696 mmHg 69%
    19:00 +17°C° 0.1 mm 2 m/S 696 mmHg 69%
    20:00 +16°C° 0.1 mm 3 m/S 696 mmHg 69%
    21:00 +16°C° 0 mm 3 m/S 696 mmHg 65%
    22:00 +16°C° 0 mm 3 m/S 695 mmHg 61%
    23:00 +14°C° 0 mm 3 m/S 695 mmHg 57%

    29 März, Freitag

    Zeit Temperatur Niederschläge Wind Luftdruck Luftfeuchtigkeit
    00:00 +14°C° 0 mm 3 m/S 694 mmHg 55%
    01:00 +15°C° 0 mm 2 m/S 694 mmHg 54%
    02:00 +14°C° 0 mm 2 m/S 694 mmHg 52%
    03:00 +14°C° 0 mm 2 m/S 693 mmHg 51%
    04:00 +14°C° 0 mm 2 m/S 693 mmHg 50%
    05:00 +13°C° 0 mm 3 m/S 693 mmHg 48%
    06:00 +15°C° 0 mm 2 m/S 693 mmHg 47%
    07:00 +16°C° 0 mm 2 m/S 693 mmHg 46%
    08:00 +17°C° 0 mm 2 m/S 693 mmHg 45%
    09:00 +18°C° 0 mm 2 m/S 693 mmHg 45%
    10:00 +19°C° 0 mm 3 m/S 693 mmHg 45%
    11:00 +20°C° 0 mm 4 m/S 693 mmHg 45%
    12:00 +20°C° 0 mm 4 m/S 693 mmHg 48%
    13:00 +20°C° 0 mm 4 m/S 692 mmHg 51%
    14:00 +20°C° 0 mm 5 m/S 692 mmHg 54%
    15:00 +19°C° 0 mm 4 m/S 692 mmHg 58%
    16:00 +19°C° 0 mm 4 m/S 692 mmHg 61%
    17:00 +18°C° 0 mm 4 m/S 692 mmHg 64%
    18:00 +17°C° 0 mm 3 m/S 692 mmHg 68%
    19:00 +16°C° 0 mm 2 m/S 692 mmHg 72%
    20:00 +15°C° 0 mm 1 m/S 692 mmHg 76%
    21:00 +14°C° 0 mm 1 m/S 692 mmHg 73%
    22:00 +14°C° 0 mm 1 m/S 691 mmHg 70%
    23:00 +14°C° 0 mm 1 m/S 691 mmHg 68%

    30 März, Samstag

    Zeit Temperatur Niederschläge Wind Luftdruck Luftfeuchtigkeit
    00:00 +14°C° 0 mm 1 m/S 691 mmHg 68%
    01:00 +13°C° 0 mm 2 m/S 690 mmHg 67%
    02:00 +13°C° 0 mm 2 m/S 690 mmHg 67%
    03:00 +13°C° 0 mm 2 m/S 690 mmHg 67%
    04:00 +13°C° 0 mm 2 m/S 690 mmHg 67%
    05:00 +13°C° 0 mm 2 m/S 690 mmHg 67%
    06:00 +13°C° 0 mm 2 m/S 691 mmHg 68%
    07:00 +12°C° 0 mm 3 m/S 692 mmHg 69%
    08:00 +12°C° 0 mm 3 m/S 692 mmHg 69%
    09:00 +12°C° 0 mm 4 m/S 693 mmHg 71%
    10:00 +12°C° 0 mm 5 m/S 693 mmHg 73%
    11:00 +11°C° 0 mm 6 m/S 694 mmHg 74%
    12:00 +10°C° 0.4 mm 5 m/S 695 mmHg 78%
    13:00 +11°C° 0.4 mm 4 m/S 695 mmHg 82%
    14:00 +10°C° 0.4 mm 3 m/S 695 mmHg 87%
    15:00 +10°C° 0.4 mm 3 m/S 696 mmHg 88%
    16:00 +9°C° 0.4 mm 2 m/S 696 mmHg 89%
    17:00 +9°C° 0.4 mm 2 m/S 697 mmHg 90%
    18:00 +9°C° 0.3 mm 2 m/S 697 mmHg 90%
    19:00 +10°C° 0.3 mm 1 m/S 698 mmHg 91%
    20:00 +9°C° 0.3 mm 1 m/S 698 mmHg 92%
    21:00 +9°C° 0.2 mm 1 m/S 698 mmHg 91%
    22:00 +9°C° 0.2 mm 1 m/S 698 mmHg 91%
    23:00 +9°C° 0.2 mm 1 m/S 698 mmHg 90%
    Mehr zeigen